Notices

What's New in latest Release from April 7th, 2021:

- Updated Glossary, including Speed of Maximum Gust, and Total Hourly Precipitation

- Updated national and regional climate services offices contacts and prices information

- Addition of station inventory lists for 1981-2010, 1971-2000, and 1961-1990 Normals.

If you haven't already, please take our survey and provide feedback about our website: https://eccc.sondage-survey.ca/f/LanguageSelection.aspx?s=442ca660-fcf1-47c0-95a9-59707d6fd709

Hourly Data Report for January 20, 2004

TORONTO CITY
ONTARIO

43°40'00.000" N
79°24'00.000" W
112.50 m
6158355
71508
XTO

Download Data

Hourly Data (January 2004)
Hourly Data Report for January 20, 2004
TIME
LST
Temp Definition
°C
Dew Point Definition
°C
Rel Hum Definition
%
Precip. Amount Definition
mm

Wind Dir Definition
10's deg

Wind Spd Definition
km/h
Visibility Definition
km
Stn Press Definition
kPa
Hmdx Definition


Wind Chill Definition


Weather Definition


00:00 -11.3 -15.4 72   LegendMM LegendMM LegendMM 100.22     LegendNANA
01:00 -11.6 -15.2 75   LegendMM LegendMM LegendMM 100.24     LegendNANA
02:00 -11.6 -14.9 76   LegendMM LegendMM LegendMM 100.27     LegendNANA
03:00 -11.6 -15.1 75   LegendMM LegendMM LegendMM 100.29     LegendNANA
04:00 -11.7 -14.6 79   LegendMM LegendMM LegendMM 100.32     LegendNANA
05:00 -11.5 -14.6 78   LegendMM LegendMM LegendMM 100.35     LegendNANA
06:00 -11.4 -14.7 77   LegendMM LegendMM LegendMM 100.41     LegendNANA
07:00 -11.5 -15.0 75   LegendMM LegendMM LegendMM 100.48     LegendNANA
08:00 -12.1 -16.0 73   LegendMM LegendMM LegendMM 100.57     LegendNANA
09:00 -13.2 -17.7 69   LegendMM LegendMM LegendMM 100.69     LegendNANA
10:00 -13.5 -18.6 65   LegendMM LegendMM LegendMM 100.77     LegendNANA
11:00 -13.2 -19.0 62   LegendMM LegendMM LegendMM 100.85     LegendNANA
12:00 -11.7 -17.7 61   LegendMM LegendMM LegendMM 100.86     LegendNANA
13:00 -11.4 -17.7 60   LegendMM LegendMM LegendMM 100.86     LegendNANA
14:00 -10.7 -17.0 60   LegendMM LegendMM LegendMM 100.88     LegendNANA
15:00 -10.2 -16.1 62   LegendMM LegendMM LegendMM 100.89     LegendNANA
16:00 -9.8 -16.0 61   LegendMM LegendMM LegendMM 100.92     LegendNANA
17:00 -9.9 -15.8 62   LegendMM LegendMM LegendMM 100.97     LegendNANA
18:00 -10.1 -15.9 62   LegendMM LegendMM LegendMM 101.00     LegendNANA
19:00 -10.1 -15.7 64   LegendMM LegendMM LegendMM 101.00     LegendNANA
20:00 -10.9 -16.1 65   LegendMM LegendMM LegendMM 101.00     LegendNANA
21:00 -11.6 -16.3 68   LegendMM LegendMM LegendMM 101.02     LegendNANA
22:00 -12.1 -16.3 71   LegendMM LegendMM LegendMM 101.02     LegendNANA
23:00 -12.2 -16.3 71   LegendMM LegendMM LegendMM 101.02     LegendNANA

Notes on Data Quality.

Legend

  • E = Estimated
  • M = Missing
  • NA = Not Available*
  • [empty] = Indicates an unobserved value
Date modified: